GW3829 Weather Reports


time (UTC)temp
C
wind
direction
speed
KPH
gust
KPH
rain 1hr
cm
rain 24hr
cm
rain mn
cm
humidity
%
barometer
mb
20260906230019 17 2 20.9 22.5 0.00 0.00 0.00 79 1014.8
20260906225513 17 331 14.5 16.1 0.00 0.00 0.00 80 1014.9
20260906225009 17 341 17.7 22.5 0.00 0.00 0.00 82 1015.0
20260906224505 16 322 14.5 17.7 0.00 0.00 0.00 83 1015.0
20260906224001 16 324 14.5 17.7 0.00 0.00 0.00 83 1015.1
20260906223457 16 328 17.7 17.7 0.00 0.00 0.00 83 1014.8
20260906222955 16 330 19.3 22.5 0.00 0.00 0.00 83 1015.0
20260906222449 16 341 16.1 20.9 0.00 0.00 0.00 83 1015.3
20260906221947 16 327 17.7 22.5 0.00 0.00 0.00 84 1015.2
20260906221441 16 334 11.3 12.9 0.00 0.00 0.00 84 1015.0
20260906220937 16 0 16.1 17.7 0.00 0.00 0.00 85 1015.4
20260906220431 16 313 11.3 12.9 0.00 0.00 0.00 84 1014.8
20260906215930 16 340 14.5 14.5 0.00 0.00 0.00 85 1015.0
20260906215425 16 358 14.5 14.5 0.00 0.00 0.00 86 1015.2
20260906214924 16 355 14.5 16.1 0.00 0.00 0.00 85 1015.1
20260906214423 16 356 12.9 14.5 0.00 0.00 0.00 85 1015.0
20260906213922 15 359 14.5 16.1 0.00 0.00 0.00 85 1015.2
20260906213417 15 346 11.3 12.9 0.00 0.00 0.00 87 1015.1
20260906212914 15 5 14.5 17.7 0.00 0.00 0.00 85 1015.2
20260906212409 15 2 14.5 20.9 0.00 0.00 0.00 85 1015.0
20260906211904 15 351 16.1 17.7 0.00 0.00 0.00 85 1015.2
20260906211359 15 343 14.5 17.7 0.00 0.00 0.00 86 1015.2
20260906210859 15 354 16.1 16.1 0.00 0.00 0.00 85 1015.2
20260906210354 15 346 14.5 16.1 0.00 0.00 0.00 85 1015.2
20260906205849 15 342 19.3 22.5 0.00 0.00 0.00 84 1015.3
20260906205345 16 346 16.1 17.7 0.00 0.00 0.00 83 1015.0
20260906204841 16 351 14.5 17.7 0.00 0.00 0.00 83 1015.0
20260906204339 15 341 22.5 25.7 0.00 0.00 0.00 83 1015.1
20260906203839 16 352 19.3 22.5 0.00 0.00 0.00 83 1015.1
20260906203335 16 9 19.3 22.5 0.00 0.00 0.00 83 1014.9
20260906202832 16 350 20.9 24.1 0.00 0.00 0.00 82 1015.0
20260906202332 16 312 17.7 20.9 0.00 0.00 0.00 83 1015.3
20260906201831 16 13 19.3 24.1 0.00 0.00 0.00 83 1015.0
20260906201326 15 1 20.9 22.5 0.00 0.00 0.00 83 1015.0
20260906200821 16 315 20.9 24.1 0.00 0.00 0.00 82 1015.3
20260906200317 16 5 22.5 25.7 0.00 0.00 0.00 82 1015.4
20260906195812 16 332 19.3 25.7 0.00 0.00 0.00 83 1015.2
20260906195309 16 18 19.3 22.5 0.00 0.00 0.00 82 1015.2
20260906194804 16 4 20.9 24.1 0.00 0.00 0.00 83 1015.4
20260906194300 16 8 22.5 29.0 0.00 0.00 0.00 81 1015.2
20260906193754 16 12 24.1 25.7 0.00 0.00 0.00 81 1015.1
20260906193249 16 22 16.1 17.7 0.00 0.00 0.00 81 1015.2
20260906192745 16 25 20.9 25.7 0.00 0.00 0.00 80 1015.3
20260906192240 16 17 22.5 24.1 0.00 0.00 0.00 80 1015.3
20260906191739 16 7 22.5 25.7 0.00 0.00 0.00 81 1015.2
20260906191234 16 358 27.4 32.2 0.00 0.00 0.00 79 1015.1
20260906190733 16 9 24.1 29.0 0.00 0.00 0.00 81 1015.1
20260906190228 16 21 20.9 24.1 0.00 0.00 0.00 80 1015.1
20260906185728 15 7 25.7 32.2 0.00 0.00 0.00 81 1015.1
20260906185227 16 14 20.9 25.7 0.00 0.00 0.00 81 1015.1
20260906184727 16 10 24.1 32.2 0.00 0.00 0.00 80 1015.4
20260906184222 15 13 30.6 37.0 0.00 0.00 0.00 80 1015.6
20260906183718 15 4 20.9 24.1 0.00 0.00 0.00 83 1015.6
20260906183214 15 21 22.5 25.7 0.00 0.00 0.00 83 1015.6
20260906182714 15 0 20.9 25.7 0.00 0.00 0.00 84 1015.9
20260906182210 15 14 17.7 17.7 0.00 0.00 0.00 86 1015.8
20260906181705 14 33 27.4 29.0 0.00 0.00 0.00 86 1015.6
20260906181202 14 353 17.7 24.1 0.00 0.00 0.00 88 1016.0
20260906180701 13 27 19.3 24.1 0.00 0.00 0.00 88 1015.9
20260906180156 13 26 24.1 25.7 0.00 0.00 0.00 88 1016.0
20260906175654 13 0 22.5 25.7 0.00 0.00 0.00 88 1016.5
20260906175149 13 357 17.7 20.9 0.00 0.00 0.00 89 1016.9
20260906174648 13 2 20.9 24.1 0.00 0.00 0.00 90 1016.9
20260906174143 13 310 16.1 20.9 0.00 0.00 0.00 91 1017.0
20260906173638 13 358 22.5 27.4 0.00 0.00 0.00 90 1017.2
20260906173134 13 1 20.9 24.1 0.00 0.00 0.00 90 1016.9
20260906172632 13 346 22.5 27.4 0.00 0.00 0.00 91 1017.2
20260906172129 13 352 22.5 25.7 0.00 0.00 0.00 91 1017.0
20260906171628 13 358 22.5 25.7 0.00 0.00 0.00 92 1017.4
20260906171124 13 353 20.9 24.1 0.00 0.00 0.00 92 1017.3
20260906170620 12 343 22.5 27.4 0.00 0.00 0.00 93 1017.1
20260906170119 12 342 16.1 22.5 0.00 0.00 0.00 93 1017.5
20260906165615 12 352 19.3 24.1 0.00 0.00 0.00 92 1017.3
20260906165111 12 354 20.9 22.5 0.00 0.00 0.00 93 1017.3
20260906164609 12 5 20.9 24.1 0.00 0.00 0.00 94 1017.4
20260906164105 12 349 20.9 22.5 0.00 0.00 0.00 94 1017.1
20260906163601 12 355 17.7 20.9 0.00 0.00 0.00 95 1017.1
20260906163056 12 355 20.9 27.4 0.00 0.00 0.00 95 1016.9
20260906162554 12 347 25.7 27.4 0.00 0.00 0.00 94 1016.7
20260906162048 12 353 20.9 24.1 0.00 0.00 0.00 95 1017.1
20260906161543 12 4 20.9 24.1 0.00 0.00 0.00 94 1017.1
20260906161042 12 352 16.1 20.9 0.00 0.00 0.00 94 1017.5
20260906160541 12 323 24.1 25.7 0.00 0.00 0.00 92 1017.3
20260906160040 13 321 20.9 25.7 0.00 0.00 0.00 91 1017.4
20260906155538 13 3 22.5 25.7 0.00 0.00 0.00 90 1017.2
20260906155034 13 358 20.9 24.1 0.00 0.00 0.00 89 1017.4
20260906154530 13 326 20.9 25.7 0.00 0.00 0.00 87 1017.6
20260906154028 14 3 14.5 16.1 0.00 0.00 0.00 87 1017.6
20260906153527 13 324 14.5 16.1 0.00 0.00 0.00 87 1017.9
20260906153023 13 308 19.3 22.5 0.00 0.00 0.00 89 1017.5
20260906152517 13 308 14.5 20.9 0.00 0.00 0.00 92 1017.6
20260906152016 13 317 11.3 14.5 0.00 0.00 0.00 94 1017.5
20260906151511 13 345 27.4 32.2 0.00 0.00 0.00 93 1017.5
20260906151007 13 340 19.3 24.1 0.00 0.00 0.00 94 1017.9
20260906150502 13 330 17.7 22.5 0.00 0.00 0.00 93 1017.7
20260906150001 14 350 9.7 11.3 0.00 0.00 0.00 93 1017.7
20260906145456 14 29 11.3 12.9 0.00 0.00 0.00 92 1017.5
20260906144955 14 345 11.3 12.9 0.00 0.00 0.00 93 1017.5
20260906144450 13 346 12.9 14.5 0.00 0.00 0.00 94 1017.1
20260906143945 13 23 11.3 12.9 0.00 0.00 0.00 94 1017.3
20260906143441 13 334 9.7 12.9 0.00 0.00 0.00 95 1017.4
20260906142936 13 340 9.7 11.3 0.00 0.00 0.00 95 1017.6
20260906142431 13 351 8.0 9.7 0.00 0.00 0.00 95 1017.6
20260906141926 13 22 14.5 14.5 0.00 0.00 0.00 95 1017.5
20260906141425 13 20 9.7 12.9 0.00 0.00 0.00 95 1017.3
20260906140920 13 11 14.5 16.1 0.00 0.00 0.00 95 1017.6
20260906140415 13 21 12.9 14.5 0.00 0.00 0.00 95 1017.5
20260906135913 13 352 14.5 16.1 0.00 0.00 0.00 96 1017.6
20260906135412 13 347 12.9 14.5 0.00 0.00 0.00 96 1017.5
20260906134908 13 358 8.0 11.3 0.00 0.00 0.00 97 1017.5
20260906134403 13 315 9.7 11.3 0.00 0.00 0.00 96 1017.5
20260906133857 13 10 19.3 20.9 0.00 0.00 0.00 96 1017.5
20260906133353 13 0 14.5 16.1 0.00 0.00 0.00 97 1017.3
20260906132849 12 341 11.3 14.5 0.00 0.00 0.00 97 1017.4
20260906132344 12 339 9.7 11.3 0.00 0.00 0.00 98 1017.5
20260906131839 12 331 9.7 11.3 0.00 0.00 0.00 98 1017.7
20260906131334 12 355 9.7 11.3 0.00 0.00 0.00 98 1017.5
20260906130830 12 357 12.9 14.5 0.00 0.00 0.00 98 1017.7
20260906130330 12 354 6.4 8.0 0.00 0.00 0.00 98 1017.6
20260906125829 12 358 9.7 9.7 0.00 0.00 0.00 98 1017.7
20260906125326 12 357 8.0 11.3 0.00 0.00 0.00 98 1017.6
20260906124821 12 12 12.9 12.9 0.00 0.00 0.00 98 1017.4
20260906124317 12 26 11.3 12.9 0.00 0.00 0.00 98 1017.4
20260906123816 12 341 11.3 12.9 0.00 0.00 0.00 98 1017.9
20260906123311 12 351 12.9 14.5 0.00 0.00 0.00 98 1017.6
20260906122811 12 340 14.5 16.1 0.00 0.00 0.00 98 1017.9
20260906122306 12 0 11.3 12.9 0.00 0.00 0.00 98 1018.0
20260906121803 12 349 14.5 14.5 0.00 0.00 0.00 98 1017.7
20260906121300 12 351 12.9 16.1 0.00 0.00 0.00 98 1017.9
20260906120755 12 338 11.3 12.9 0.00 0.00 0.00 98 1018.1
20260906120251 12 334 11.3 12.9 0.00 0.00 0.00 98 1018.0
20260906115747 12 338 11.3 12.9 0.00 0.00 0.00 98 1018.1
20260906115241 12 331 9.7 11.3 0.00 0.00 0.00 98 1018.2
20260906114740 12 354 9.7 11.3 0.00 0.00 0.00 98 1018.0
20260906114236 12 323 12.9 14.5 0.00 0.00 0.00 98 1018.2
20260906113731 12 331 9.7 11.3 0.00 0.00 0.00 97 1018.2
20260906113230 12 342 9.7 12.9 0.00 0.00 0.00 97 1017.9
20260906112724 12 313 9.7 11.3 0.00 0.00 0.00 97 1018.0
20260906112221 12 3 16.1 17.7 0.00 0.00 0.00 97 1017.6
20260906111720 12 358 17.7 22.5 0.00 0.00 0.00 97 1017.5
20260906111215 12 349 16.1 16.1 0.00 0.00 0.00 97 1018.0
20260906110710 12 346 14.5 16.1 0.00 0.00 0.00 97 1017.9
20260906110206 12 355 17.7 22.5 0.00 0.00 0.00 97 1017.9
20260906105700 12 5 17.7 17.7 0.00 0.00 0.00 97 1017.9
20260906105156 12 1 17.7 20.9 0.00 0.00 0.00 97 1018.1
20260906104655 12 351 12.9 14.5 0.00 0.00 0.00 97 1017.7
20260906104149 12 7 16.1 17.7 0.00 0.00 0.00 98 1017.6
20260906103647 12 1 12.9 16.1 0.00 0.00 0.00 98 1018.1
20260906103143 11 353 9.7 11.3 0.00 0.00 0.00 98 1018.2
20260906102637 11 342 11.3 14.5 0.00 0.00 0.00 98 1018.2
20260906102132 12 17 16.1 20.9 0.00 0.00 0.00 98 1018.4
20260906101631 12 329 17.7 20.9 0.00 0.00 0.00 98 1018.2
20260906101131 12 345 14.5 17.7 0.00 0.00 0.00 98 1018.1
20260906100627 12 318 17.7 17.7 0.00 0.00 0.00 98 1018.2
20260906100122 12 351 19.3 22.5 0.00 0.00 0.00 98 1018.2
20260906095621 12 333 19.3 22.5 0.00 0.00 0.00 98 1018.0
20260906095117 12 8 19.3 24.1 0.00 0.00 0.00 98 1017.9
20260906094616 12 345 19.3 24.1 0.00 0.00 0.00 98 1018.1
20260906094112 12 358 20.9 24.1 0.00 0.00 0.00 98 1018.2
20260906093608 12 353 22.5 25.7 0.00 0.00 0.00 98 1018.2
20260906093102 12 358 16.1 17.7 0.00 0.00 0.00 98 1018.4
20260906092557 12 336 22.5 25.7 0.00 0.00 0.00 98 1018.4
20260906092053 12 326 16.1 20.9 0.00 0.00 0.00 98 1018.4
20260906091548 12 358 20.9 24.1 0.00 0.00 0.00 98 1018.5
20260906091045 12 358 20.9 24.1 0.00 0.00 0.00 98 1018.7
20260906090545 12 1 24.1 27.4 0.00 0.00 0.00 98 1018.6
20260906090040 12 1 20.9 22.5 0.00 0.00 0.00 98 1018.7
20260906085539 12 9 19.3 24.1 0.00 0.00 0.00 98 1019.0
20260906085038 12 357 22.5 25.7 0.00 0.00 0.00 98 1018.6
20260906084533 12 357 17.7 20.9 0.00 0.00 0.00 98 1018.8
20260906084032 12 311 24.1 27.4 0.00 0.00 0.00 98 1019.1
20260906083528 12 19 20.9 24.1 0.00 0.00 0.00 98 1018.8
20260906083028 12 358 22.5 24.1 0.00 0.00 0.00 98 1018.8
20260906082523 12 340 24.1 27.4 0.00 0.00 0.00 97 1018.8
20260906082019 12 339 16.1 16.1 0.00 0.00 0.00 97 1018.8
20260906081514 12 334 22.5 29.0 0.00 0.00 0.00 97 1018.8
20260906081010 12 348 19.3 22.5 0.00 0.00 0.00 97 1018.8
20260906080506 12 9 20.9 24.1 0.00 0.00 0.00 96 1019.1
20260906080002 12 355 22.5 27.4 0.00 0.00 0.00 96 1018.8
20260906075456 12 6 20.9 24.1 0.00 0.00 0.00 96 1018.8
20260906074951 12 355 19.3 22.5 0.00 0.00 0.00 96 1019.0
20260906074451 12 10 22.5 25.7 0.00 0.00 0.00 96 1019.2
20260906073949 12 1 24.1 27.4 0.00 0.00 0.00 96 1018.7
20260906073444 12 354 20.9 25.7 0.00 0.00 0.00 95 1019.1
20260906072941 12 2 17.7 20.9 0.00 0.00 0.00 95 1019.0
20260906072436 12 348 20.9 24.1 0.00 0.00 0.00 95 1019.1
20260906071931 12 8 22.5 25.7 0.00 0.00 0.00 94 1019.2
20260906071427 12 343 20.9 25.7 0.00 0.00 0.00 94 1019.3
20260906070923 12 350 20.9 24.1 0.00 0.00 0.00 94 1019.5
20260906070419 12 351 24.1 29.0 0.00 0.00 0.00 93 1019.4
20260906065915 12 347 27.4 32.2 0.00 0.00 0.00 92 1019.4
20260906065409 13 357 16.1 17.7 0.00 0.00 0.00 92 1019.8
20260906064904 13 350 25.7 27.4 0.00 0.00 0.00 92 1019.5
20260906064355 13 9 25.7 32.2 0.00 0.00 0.00 92 1019.7
20260906063854 13 2 24.1 29.0 0.00 0.00 0.00 93 1019.5
20260906063349 12 357 20.9 25.7 0.00 0.00 0.00 93 1019.8
20260906062844 12 359 17.7 25.7 0.00 0.00 0.00 93 1019.9
20260906062344 12 341 20.9 24.1 0.00 0.00 0.00 93 1020.1
20260906061839 12 338 19.3 22.5 0.00 0.00 0.00 93 1019.9
20260906061330 12 347 19.3 24.1 0.00 0.00 0.00 94 1019.6
20260906060824 12 12 19.3 24.1 0.00 0.00 0.00 94 1019.8
20260906060323 12 337 17.7 20.9 0.00 0.00 0.00 94 1019.8
20260906055818 12 327 17.7 20.9 0.00 0.23 0.23 94 1019.6
20260906055314 12 353 19.3 22.5 0.00 0.23 0.23 93 1019.6
20260906054809 12 3 19.3 22.5 0.00 0.23 0.23 93 1019.5
20260906054304 12 345 20.9 24.1 0.00 0.23 0.23 93 1019.6
20260906053801 12 337 19.3 20.9 0.00 0.23 0.23 93 1019.5
20260906053256 12 9 24.1 27.4 0.30 0.23 0.23 93 1019.4
20260906052750 12 352 20.9 24.1 0.61 0.23 0.23 93 1019.7
20260906052247 12 3 24.1 25.7 0.43 0.20 0.20 92 1019.7
20260906051743 13 4 20.9 24.1 0.00 0.13 0.13 91 1019.1
20260906051237 13 333 17.7 17.7 0.00 0.13 0.13 91 1020.5
20260906050733 13 295 14.5 17.7 0.00 0.13 0.13 91 1020.8
20260906050228 12 336 14.5 14.5 0.00 0.13 0.13 91 1020.2
20260906045726 12 353 16.1 16.1 0.00 0.13 0.13 92 1019.7
20260906045222 12 336 14.5 17.7 0.00 0.13 0.13 92 1019.6
20260906044717 12 340 17.7 20.9 0.00 0.13 0.13 92 1019.4
20260906044212 12 331 17.7 25.7 0.00 0.13 0.13 92 1019.4
20260906043709 12 338 19.3 25.7 0.00 0.13 0.13 92 1019.2
20260906043204 12 343 22.5 24.1 0.00 0.13 0.13 92 1019.1
20260906042703 12 339 20.9 25.7 0.00 0.13 0.13 91 1019.1
20260906042156 13 358 20.9 22.5 0.00 0.13 0.13 91 1019.1
20260906041652 13 351 25.7 29.0 0.00 0.13 0.13 89 1018.8
20260906041147 13 349 22.5 27.4 0.00 0.13 0.13 90 1019.0
20260906040642 13 8 22.5 29.0 0.00 0.13 0.13 89 1018.8
20260906040138 13 354 27.4 32.2 0.30 0.13 0.13 89 1019.1
20260906035633 13 346 19.3 22.5 0.48 0.13 0.13 88 1019.5
20260906035130 13 359 35.4 38.6 0.18 0.08 0.08 85 1019.1
20260906034629 15 321 17.7 22.5 0.00 0.05 0.05 76 1020.6
20260906034124 15 313 17.7 17.7 0.00 0.05 0.05 77 1020.6
20260906033620 14 318 17.7 20.9 0.00 0.05 0.05 77 1020.3
20260906033120 14 319 17.7 17.7 0.00 0.05 0.05 77 1019.5
20260906032617 14 340 19.3 20.9 0.00 0.05 0.05 78 1018.7
20260906032116 14 331 19.3 22.5 0.00 0.05 0.05 78 1018.7
20260906031612 14 337 22.5 25.7 0.00 0.05 0.05 77 1018.8
20260906031107 13 358 20.9 25.7 0.00 0.05 0.05 77 1018.8
20260906030606 13 355 19.3 22.5 0.00 0.05 0.05 78 1018.7
20260906030101 13 15 17.7 22.5 0.00 0.05 0.05 77 1018.6
20260906025555 13 335 19.3 24.1 0.00 0.05 0.05 77 1018.1
20260906025054 14 357 24.1 27.4 0.00 0.05 0.05 77 1018.4
20260906024549 14 0 22.5 25.7 0.00 0.05 0.05 76 1018.2
20260906024044 14 11 19.3 22.5 0.00 0.05 0.05 76 1018.3
20260906023540 14 0 16.1 17.7 0.00 0.05 0.05 75 1018.3
20260906023034 14 348 19.3 25.7 0.00 0.05 0.05 74 1018.3
20260906022530 15 7 19.3 22.5 0.00 0.05 0.05 74 1018.3
20260906022025 15 9 24.1 27.4 0.00 0.05 0.05 73 1018.1
20260906021520 15 7 19.3 20.9 0.00 0.05 0.05 73 1018.3
20260906021014 15 5 17.7 24.1 0.00 0.05 0.05 72 1018.2
20260906020514 15 0 17.7 20.9 0.00 0.05 0.05 72 1018.3
20260906020014 15 352 17.7 22.5 0.00 0.05 0.05 71 1018.4
20260906015513 15 354 24.1 27.4 0.00 0.05 0.05 71 1018.3
20260906015012 15 0 22.5 25.7 0.00 0.05 0.05 70 1018.2
20260906014507 15 7 19.3 24.1 0.00 0.05 0.05 70 1018.3
20260906014003 16 10 24.1 29.0 0.00 0.05 0.05 70 1018.1
20260906013458 16 15 24.1 25.7 0.00 0.05 0.05 70 1018.1
20260906012948 16 27 17.7 20.9 0.00 0.05 0.05 69 1018.2
20260906012443 16 353 20.9 24.1 0.00 0.05 0.05 68 1017.6
20260906011942 16 1 19.3 22.5 0.00 0.05 0.05 68 1018.0
20260906011438 16 21 25.7 32.2 0.00 0.05 0.05 68 1017.6
20260906010933 16 8 27.4 29.0 0.00 0.05 0.05 68 1017.9
20260906010428 16 4 24.1 27.4 0.00 0.05 0.05 67 1017.7
20260906005925 17 0 25.7 33.8 0.00 0.05 0.05 66 1017.6
20260906005424 17 1 27.4 32.2 0.00 0.05 0.05 65 1017.9
20260906004922 17 346 24.1 32.2 0.00 0.05 0.05 65 1017.9
20260906004417 17 5 22.5 25.7 0.00 0.05 0.05 64 1018.0
20260906003913 18 345 25.7 27.4 0.00 0.05 0.05 62 1017.9
20260906003408 18 347 25.7 29.0 0.00 0.05 0.05 61 1017.7
20260906002902 18 1 20.9 24.1 0.00 0.05 0.05 60 1017.7
20260906002401 18 346 27.4 29.0 0.00 0.05 0.05 61 1017.6
20260906001852 18 12 27.4 33.8 0.00 0.05 0.05 61 1018.0
20260906001348 18 350 25.7 35.4 0.00 0.05 0.05 60 1018.3
20260906000843 18 20 24.1 27.4 0.00 0.05 0.05 60 1018.2
20260906000343 18 353 20.9 25.7 0.00 0.05 0.05 60 1018.2
20260905235843 18 355 20.9 24.1 0.00 0.05 0.05 61 1018.4
20260905235337 18 347 24.1 29.0 0.00 0.05 0.05 59 1018.0
20260905234833 18 344 17.7 22.5 0.00 0.05 0.05 60 1018.0
20260905234328 19 353 24.1 25.7 0.00 0.05 0.05 59 1018.1
20260905233823 19 358 24.1 25.7 0.00 0.05 0.05 59 1018.3
20260905233318 19 355 16.1 16.1 0.00 0.05 0.05 58 1018.2
20260905232817 19 1 24.1 27.4 0.00 0.05 0.05 58 1018.2
20260905232314 19 359 20.9 25.7 0.00 0.05 0.05 58 1018.0
20260905231809 20 341 20.9 24.1 0.00 0.05 0.05 58 1018.0
20260905231304 20 359 24.1 27.4 0.00 0.05 0.05 56 1018.2
20260905230800 20 349 22.5 27.4 0.00 0.05 0.05 57 1017.9
20260905230258 20 358 20.9 24.1 0.00 0.05 0.05 55 1018.1